Regional Weather Roundup
Issued by NWS

Home | Current Version | Previous Version | Text Only | Print | Product List | Glossary On
Versions: 1 2 3 4 5 6 7 8 9 10 11 12 13 14 15 16 17 18 19 20 21 22 23 24 25 26 27 28 29 30 31 32 33 34 35 36 37 38 39 40 41 42 43 44 45 46 47 48 49 50
000
ASUS44 KFWD 070103
RWRTX
NORTH TEXAS HOURLY WEATHER ROUNDUP
NATIONAL WEATHER SERVICE FORT WORTH TX
700 PM CST SAT FEB 06 2016

NOTE: "FAIR" INDICATES FEW OR NO CLOUDS BELOW 12,000 FEET WITH NO
SIGNIFICANT WEATHER AND/OR OBSTRUCTIONS TO VISIBILITY.

TXZ118-119-070200-
DALLAS/FORT WORTH METROPLEX

CITY           SKY/WX    TMP DP  RH WIND       PRES   REMARKS
DFW AIRPORT    PTCLDY    47  32  56 SE3       30.34S
DALLAS LOVE    CLEAR     47  32  56 CALM      30.35S
FTW MEACHAM    CLEAR     49  33  54 S3        30.34F
DAL-EXECUTIVE  CLEAR     44  34  67 CALM      30.34S
FTW-ALLIANCE   PTCLDY    42  31  64 S3        30.34S
FTW-NAS-JRB    PTCLDY    48  32  53 S3        30.35S
FTW-SPINKS     CLEAR     45  34  65 CALM      30.36F
ARLINGTON      CLEAR     44  32  62 SE3       30.35S
ADDISON        CLEAR     48  34  57 CALM      30.36R
MESQUITE       CLEAR     46  36  66 SW3       30.37R
LANCASTER      CLEAR     44  33  64 CALM      30.37S
$$

TXZ091>094-102>105-117-120-121-131>134-070200-
NORTH CENTRAL TEXAS

CITY           SKY/WX    TMP DP  RH WIND       PRES   REMARKS
SHRMAN/DENISON CLEAR     43  32  66 S6        30.35R WCI  39
GAINESVILLE    PTCLDY    45  31  58 CALM      30.35S
BRIDGEPORT     CLEAR     43  32  66 CALM      30.35S
DECATUR        PTCLDY    47  30  50 CALM      30.33S
DENTON         CLEAR     46  33  60 S5        30.34S
MCKINNEY       CLEAR     46  33  60 CALM      30.35R
ROCKWALL       CLEAR     46  36  67 W6        30.35R
TERRELL        CLEAR     44  33  65 SW5       30.36R
WAXAHACHIE     CLEAR     43  36  76 CALM      30.37S
CLEBURNE       CLEAR     45  34  65 SE5       30.36F
GRANBURY       CLEAR     47  34  60 CALM      30.36S
$$

TXZ083>090-098>101-113>116-127>130-139>142-154-155-070200-
WESTERN NORTH TEXAS

CITY           SKY/WX    TMP DP  RH WIND       PRES   REMARKS
WICHITA FALLS  CLEAR     46  24  42 S3        30.30F
WF-KICKAPOO    CLEAR     49  25  40 SE7       30.32S
VERNON         CLEAR     45  20  37 SE6       30.30S
ABILENE        CLEAR     46  19  34 SE7       30.30F
ABILENE-DYESS  CLEAR     46  18  32 SE7       30.29F
MINERAL WELLS  CLEAR     44  29  55 S5        30.31F
STEPHENVILLE   CLEAR     48  26  42 CALM      30.36S
COMANCHE       CLEAR     48  24  38 E5        30.33F
BROWNWOOD      CLEAR     46  19  34 CALM      30.33S
$$

TXZ143>147-156>162-174-175-070200-
CENTRAL TEXAS

CITY           SKY/WX    TMP DP  RH WIND       PRES   REMARKS
WACO           CLEAR     42  32  67 NE6       30.37S WCI  38
WACO-MCGREGOR  CLEAR     46  35  65 NE6       30.37S
HILLSBORO      CLEAR     42  32  67 CALM      30.37S
CORSICANA      CLEAR     42  35  76 W5        30.38R WCI  39
MEXIA          CLEAR     43  36  74 W3        30.36R
HEARNE         CLEAR     42  35  77 N5        30.39S WCI  39
TEMPLE         CLEAR     45  34  65 NE6       30.37R
KILLEEN        CLEAR     47  31  54 NE6       30.34S
KILLEEN-SKYLRK CLEAR     47  34  60 NE7       30.36R
FORT HOOD      CLEAR     48  33  57 E7        30.33S
HAMILTON       CLEAR     48  28  44 CALM      30.34F
LAMPASAS       CLEAR     48  28  46 N3        30.34S
$$

TXZ095>097-106>112-122>126-135>138-148>153-164>167-070200-
EAST TEXAS

CITY           SKY/WX    TMP DP  RH WIND       PRES   REMARKS
PARIS          CLEAR     45  30  57 W7        30.33R
SULPHUR SPRNGS CLEAR     47  33  56 CALM      30.36R
MINEOLA        CLEAR     43  36  75 CALM      30.36R
TYLER          CLEAR     44  33  65 CALM      30.34R
LONGVIEW       CLEAR     40  36  86 CALM      30.33R
MARSHALL       CLEAR     41  36  83 CALM      30.35R
PALESTINE      CLEAR     46  37  73 CALM      30.36R
JACKSONVILLE   CLEAR     45  36  70 NE3       30.35S
CENTER         FAIR      41  39  95 CALM      30.34R
NACOGDOCHES    CLEAR     39  36  87 CALM      30.35R
LUFKIN         CLEAR     43  37  79 NE3       30.35R
$$

SUPPLEMENTAL OBSERVATIONS (CENTRAL)

CITY           SKY/WX    TMP DP  RH WIND       PRES   REMARKS
$$

SUPPLEMENTAL OBSERVATIONS (WEST)

CITY           SKY/WX    TMP DP  RH WIND       PRES   REMARKS
$$

SUPPLEMENTAL OBSERVATIONS (EAST)

CITY           SKY/WX    TMP DP  RH WIND       PRES   REMARKS
N SABINE NF      N/A     41  36  81 MISG        N/A
$$

SUPPLEMENTAL OBSERVATIONS ARE A COLLECTION OF AUTOMATED INSTRUMENTS
THAT ARE MAINTAINED BY A VARIETY OF FEDERAL AND STATE AGENCIES.
CERTAIN ELEMENTS...SUCH AS HUMIDITY VALUES AND SUSTAINED WIND
SPEEDS...MAY BE APPROXIMATED.




USA.gov is the U.S. government's official web portal to all federal, state and local government web resources and services.